[[{"header":{"parameterUnit":"m.s-1","parameterCategory":1,"la1":30.2991,"la2":30.254,"lo1":-89.0895,"lo2":-89.0444,"dy":0.0017,"dx":0.0017,"nx":28,"ny":28,"refTime":"2025-06-04T03:00:00:Z","depth":0,"parameterNumber":2,"parameterNumberName":"U-component_of_WINDS"},"data":[0,0,0,0,0,0,0,0,0,0,0,0,0,0,0,0,0,0,0,0,0,0,0,0,0,0,0,0,0,0,0,0,0,0,0,0,0,0,0,0,0,0,0,0,0,0,0,0,0,0,0,0,0,0,0,0,0,0,-5.8612,-5.8613,0,-5.8681,-5.8682,-5.8683,-5.8574,-5.8571,-5.8567,-5.8563,-5.8631,-5.8636,-5.8642,0,0,0,0,0,0,0,0,0,0,0,0,0,-5.8384,-5.8389,-5.8612,-5.8613,-5.8614,-5.8681,-5.8682,-5.8683,-5.8575,-5.857,-5.8566,-5.8562,-5.863,-5.8636,-5.8642,0,0,0,0,0,0,0,0,0,0,0,0,0,-5.8471,-5.8391,-5.8612,-5.8568,-5.8565,-5.8681,-5.8682,-5.8683,-5.8576,-5.857,-5.8565,-5.856,-5.8628,-5.8635,-5.8643,-5.8804,0,0,-5.8667,-5.8671,0,0,0,0,0,0,0,0,-5.8466,-5.848,-5.8574,-5.8571,-5.8568,-5.8613,-5.8626,-5.8724,-5.8577,-5.8572,-5.8563,-5.8557,-5.863,-5.8637,-5.8662,-5.8807,-5.881,-5.8668,-5.8673,-5.8676,-5.8678,0,0,0,0,0,0,0,-5.8461,-5.8476,-5.8639,-5.8575,-5.8572,-5.8544,-5.855,-5.8644,-5.8631,-5.8572,-5.8564,-5.8574,-5.8627,-5.8655,-5.8663,-5.8811,-5.8668,-5.8675,-5.868,-5.8683,-5.909,-5.9096,0,0,0,0,0,0,-5.846,-5.8472,-5.8637,-5.8641,-5.8502,-5.8553,-5.856,-5.8605,-5.863,-5.8628,-5.8579,-5.8569,-5.8644,-5.8654,-5.8665,-5.8853,-5.8676,-5.8684,-5.8688,-5.9084,-5.9091,-5.9098,0,0,0,0,0,0,-5.8456,-5.8476,-5.8634,-5.8555,-5.8573,-5.8563,-5.8614,-5.8609,-5.8636,-5.8635,-5.8632,-5.861,-5.864,-5.8654,-5.877,-5.8853,-5.8687,-5.8694,-5.9077,-5.9086,-5.9095,-5.9231,0,0,0,0,0,0,-5.845,-5.8475,-5.8537,-5.8557,-5.8577,-5.8739,-5.8619,-5.8614,-5.8651,-5.8638,-5.8663,-5.8662,-5.8637,-5.8759,-5.8778,-5.8861,-5.8701,-5.9069,-5.9081,-5.9092,-5.9219,-5.9244,-5.9265,0,0,0,0,0,-5.8442,-5.8572,-5.854,-5.8561,-5.8654,-5.8744,-5.8756,-5.8725,-5.8658,-5.8719,-5.8718,-5.8661,-5.8843,-5.8772,-5.8792,-5.8879,-5.9064,-5.9078,-5.9091,-5.9209,-5.9239,-5.9264,0,0,0,0,0,0,-5.8561,-5.8574,-5.8539,-5.868,-5.8712,-5.8726,-5.8801,-5.8758,-5.8809,-5.8795,-5.8754,-5.8761,-5.8885,-5.8894,-5.8815,-5.9036,-5.8942,-5.896,-5.9024,-5.9053,-5.9075,-5.9068,-5.8707,0,0,0,0,0,-5.8604,-5.8677,-5.8684,-5.8808,-5.8826,-5.8812,-5.885,-5.8823,-5.8854,-5.8867,-5.8875,-5.8906,-5.897,-5.9013,-5.9072,-5.9222,-5.9224,-5.9292,-5.9315,-5.9334,-5.9348,-5.9426,-5.9455,-5.9143,-5.9142,-5.9142,0,0,-5.8692,-5.8709,-5.8757,-5.8832,-5.8853,-5.8928,-5.8823,-5.8908,-5.8962,-5.8879,-5.8988,-5.8996,-5.9029,-5.9162,-5.9221,-5.9174,-5.9436,-5.9351,-5.9366,-5.9371,-5.9443,-5.9473,-5.9499,-5.9152,-5.915,-5.9149,0,0,-5.8891,-5.8912,-5.9016,-5.9041,-5.9075,-5.9065,-5.9091,-5.9112,-5.9114,-5.9223,-5.9162,-5.9227,-5.9339,-5.9364,-5.9391,-5.9602,-5.955,-5.9623,-5.974,-5.9816,-5.9841,-5.9862,-5.9934,-5.9961,-5.9638,-5.9639,-5.9639,0,-5.8996,-5.9107,-5.9075,-5.9163,-5.9197,-5.9128,-5.9231,-5.9257,-5.9309,-5.9333,-5.9281,-5.9418,-5.9436,-5.9572,-5.9624,-5.965,-5.9676,-5.9617,-5.984,-5.9862,-5.9881,-5.9949,-5.9976,-5.9647,-5.9646,-5.9645,-5.9644,0,-5.9233,-5.9311,-5.9391,-5.9443,-5.9487,-5.9583,-5.9564,-5.9612,-5.9583,-5.9578,-5.969,-5.971,-5.977,-5.9802,-5.9774,-5.9935,-5.9904,-5.9847,-5.975,-5.992,-5.9982,-6.0008,-5.9659,-5.9656,-5.9653,-5.9651,0,0,-5.9504,-5.9539,-5.9568,-5.959,-5.9625,-5.9684,-5.9777,-5.9837,-5.9877,-5.9917,-5.9992,-6.0089,-6.0036,-6.0068,-6.0043,-6.011,-6.0272,-6.0044,-6.0044,-6.0082,-6.0447,-6.0486,-6.0517,-6.024,-6.0245,-6.0249,-6.0442,0,-5.9699,-5.9858,-5.9833,-5.9987,-6.0057,-5.9994,-6.0074,-6.0104,-6.0103,-6.0162,-6.0161,-6.0229,-6.0156,-6.0174,-6.0239,-6.0239,-6.0344,-6.0225,-6.0306,-6.031,-6.0295,-6.055,-6.0592,-6.0773,-6.0467,-6.0471,-6.0474,0,-5.9946,-5.9994,-6.0156,-6.0178,-6.0207,-6.028,-6.0332,-6.0391,-6.0423,-6.0417,-6.0453,-6.0416,-6.0507,-6.0414,-6.0538,-6.0458,-6.049,-6.0496,-6.0502,-6.0504,-6.0399,-6.0555,-6.0831,-6.0856,-6.0514,-6.051,-6.0508,0,-6.0123,-6.0229,-6.0338,-6.036,-6.039,-6.0442,-6.0457,-6.0484,-6.0522,-6.0568,-6.0592,-6.0649,-6.0679,-6.0724,-6.0702,-6.0637,-6.0829,-6.0735,-6.0825,-6.0825,-6.0864,-6.0861,-6.1144,-6.0893,-6.0893,-6.0892,-6.0892,0,-6.034,-6.044,-6.0418,-6.0485,-6.0595,-6.0565,-6.0675,-6.0682,-6.0707,-6.0773,-6.0724,-6.0787,-6.0757,-6.0818,-6.0803,-6.0906,-6.0921,-6.0918,-6.0911,-6.0919,-6.0919,-6.0936,-6.0921,-6.09,-6.0898,-6.0897,-6.0895,0,-6.0553,-6.0543,-6.0658,-6.0678,-6.0685,-6.0765,-6.0781,-6.0843,-6.084,-6.0924,-6.0943,-6.0937,-6.1006,-6.0991,-6.1067,-6.1057,-6.1185,-6.1166,-6.1174,-6.1168,-6.1257,-6.1248,-6.1558,-6.1596,-6.1325,-6.1327,-6.133,0,-6.069,-6.0766,-6.0794,-6.0835,-6.0854,-6.0922,-6.096,-6.0935,-6.0976,-6.1019,-6.1076,-6.1141,-6.1191,-6.1305,-6.1306,-6.1364,-6.1343,-6.1448,-6.1351,-6.1356,-6.1339,-6.1333,-6.1339,-6.1465,-6.1469,-6.1471,-6.1473,0,-6.0933,-6.0924,-6.0982,-6.1038,-6.1086,-6.1129,-6.1167,-6.1203,-6.1181,-6.1231,-6.1301,-6.134,-6.1419,-6.1483,-6.1537,-6.1551,-6.1508,-6.1505,-6.1528,-6.1534,-6.1534,-6.1531,-6.1222,-6.1496,-6.1494,-6.1492,-6.1491,-6.149,-6.1109,-6.1172,-6.1202,-6.1268,-6.1294,-6.1331,-6.139,-6.1394,-6.1453,-6.1514,-6.1497,-6.1577,-6.1606,-6.1674,-6.1695,-6.1757,-6.1717,-6.1752,-6.1759,-6.1767,-6.1776,-6.1529,-6.1767,-6.1766,-6.1766,-6.1765,-6.1765,0,-6.1345,-6.1362,-6.1423,-6.1478,-6.153,-6.1488,-6.1528,-6.1573,-6.1644,-6.1676,-6.1727,-6.1808,-6.1871,-6.1879,-6.1938,-6.1985,-6.1967,-6.2001,-6.1995,-6.1998,-6.181,-6.1782,-6.2015,-6.2015,-6.2014,-6.2014,-6.2014,-6.2014,-6.1474,-6.1578,-6.1574,-6.169,-6.1706,-6.1784,-6.181,-6.1843,-6.1869,-6.1961,-6.2013,-6.2019,-6.2041,-6.2101,-6.2156,-6.2157,-6.2179,-6.2221,-6.2213,-6.2037,-6.2012,-6.1988,-6.1961,-6.2227,-6.2227,-6.2395,-6.2397,-6.2398]},{"header":{"parameterUnit":"m.s-1","parameterCategory":1,"la1":30.2991,"la2":30.254,"lo1":-89.0895,"lo2":-89.0444,"dy":0.0017,"dx":0.0017,"nx":28,"ny":28,"refTime":"2025-06-04T03:00:00:Z","depth":0,"parameterNumber":3,"parameterNumberName":"V-component_of_WINDS"},"data":[0,0,0,0,0,0,0,0,0,0,0,0,0,0,0,0,0,0,0,0,0,0,0,0,0,0,0,0,0,0,0,0,0,0,0,0,0,0,0,0,0,0,0,0,0,0,0,0,0,0,0,0,0,0,0,0,0,0,2.8289,2.8289,0,2.8273,2.8273,2.8273,2.8199,2.8198,2.8196,2.8194,2.8178,2.8179,2.8181,0,0,0,0,0,0,0,0,0,0,0,0,0,2.8258,2.8259,2.8289,2.8289,2.8289,2.8273,2.8273,2.8273,2.82,2.8198,2.8196,2.8194,2.8178,2.8179,2.8181,0,0,0,0,0,0,0,0,0,0,0,0,0,2.826,2.8259,2.829,2.8251,2.8247,2.8274,2.8273,2.8273,2.82,2.8198,2.8195,2.8193,2.8177,2.8179,2.8181,2.8244,0,0,2.8186,2.8187,0,0,0,0,0,0,0,0,2.826,2.8261,2.8257,2.8253,2.8249,2.8236,2.8256,2.8263,2.8201,2.8218,2.8194,2.8191,2.82,2.8199,2.8202,2.8243,2.8242,2.8186,2.8188,2.8188,2.8189,0,0,0,0,0,0,0,2.826,2.8261,2.8283,2.8257,2.8252,2.8235,2.8232,2.8257,2.8224,2.8216,2.8211,2.821,2.8197,2.8201,2.8201,2.8242,2.8186,2.8188,2.8189,2.819,2.8334,2.8337,0,0,0,0,0,0,2.8265,2.8262,2.8284,2.8283,2.8248,2.8237,2.8234,2.8243,2.8223,2.8218,2.8212,2.8207,2.8199,2.8199,2.82,2.8272,2.8188,2.819,2.8191,2.8331,2.8335,2.8338,0,0,0,0,0,0,2.8265,2.8268,2.8284,2.8271,2.8272,2.824,2.8251,2.8244,2.8247,2.822,2.8214,2.8222,2.8197,2.8198,2.8233,2.827,2.8191,2.8192,2.8328,2.8333,2.8336,2.8416,0,0,0,0,0,0,2.8264,2.8268,2.8291,2.8272,2.8273,2.8317,2.8253,2.8245,2.825,2.8243,2.8227,2.8222,2.8195,2.8231,2.8235,2.8271,2.8194,2.8325,2.833,2.8335,2.841,2.8422,2.8433,0,0,0,0,0,2.8263,2.8314,2.8292,2.8296,2.8301,2.832,2.832,2.8287,2.8254,2.8276,2.826,2.8223,2.8266,2.8236,2.8239,2.8277,2.8322,2.8329,2.8335,2.8405,2.842,2.8433,0,0,0,0,0,0,2.8338,2.8311,2.8286,2.8332,2.8329,2.8307,2.8335,2.8305,2.831,2.8303,2.8263,2.826,2.8302,2.8293,2.8259,2.8337,2.8288,2.8295,2.834,2.8354,2.8366,2.8366,2.8195,0,0,0,0,0,2.836,2.8377,2.8353,2.8396,2.8395,2.8366,2.8373,2.8349,2.8343,2.8341,2.8327,2.8323,2.8336,2.8345,2.8355,2.841,2.8405,2.8437,2.8449,2.8458,2.8464,2.8492,2.8506,2.8358,2.8358,2.8358,0,0,2.8404,2.8392,2.8405,2.8411,2.8405,2.8424,2.8365,2.8388,2.8402,2.8345,2.8377,2.8367,2.836,2.8406,2.8425,2.84,2.8505,2.8466,2.8474,2.8475,2.85,2.8514,2.8527,2.8363,2.8362,2.8361,0,0,2.8496,2.8489,2.8523,2.852,2.8512,2.8493,2.8501,2.8485,2.8476,2.8508,2.8466,2.8483,2.8506,2.8503,2.8504,2.8598,2.8564,2.8603,2.8662,2.869,2.8701,2.8711,2.8744,2.8756,2.8609,2.861,2.861,0,2.8552,2.8579,2.8545,2.8571,2.8574,2.8525,2.856,2.8558,2.8555,2.8559,2.8531,2.856,2.8552,2.8596,2.8619,2.8622,2.8631,2.8603,2.8703,2.8712,2.8721,2.8751,2.8764,2.8614,2.8614,2.8613,2.8613,0,2.8649,2.8669,2.8698,2.8696,2.8703,2.8734,2.8705,2.8717,2.8693,2.8677,2.8711,2.87,2.8707,2.8717,2.8693,2.8758,2.8742,2.871,2.8659,2.874,2.8768,2.878,2.8621,2.8619,2.8618,2.8617,0,0,2.8783,2.8764,2.8775,2.8774,2.8763,2.8778,2.8808,2.8815,2.8825,2.8826,2.8849,2.8871,2.8841,2.8843,2.8819,2.8844,2.8918,2.8808,2.8807,2.8827,2.8988,2.9011,2.9025,2.8897,2.8899,2.8901,2.8988,0,2.8869,2.8916,2.8888,2.894,2.8958,2.8913,2.8938,2.8935,2.8922,2.8935,2.8921,2.8936,2.8896,2.8897,2.892,2.8904,2.8949,2.8898,2.8917,2.8918,2.8918,2.9039,2.9064,2.9146,2.8998,2.9,2.9002,0,2.8974,2.898,2.9034,2.9021,2.9027,2.905,2.9056,2.907,2.9066,2.9054,2.9058,2.9029,2.9057,2.901,2.9048,2.9014,2.9021,2.9015,2.9017,2.9016,2.8963,2.9039,2.9171,2.9183,2.9019,2.9017,2.9016,0,2.9065,2.9086,2.9121,2.9122,2.9108,2.9125,2.9121,2.9114,2.9121,2.9127,2.913,2.9139,2.9144,2.9151,2.9126,2.9094,2.9167,2.9118,2.9158,2.9159,2.9173,2.9172,2.9306,2.9181,2.9181,2.9181,2.9181,0,2.9162,2.9197,2.9161,2.9183,2.922,2.9189,2.9227,2.9217,2.9213,2.9232,2.9194,2.9213,2.9179,2.9194,2.9175,2.9209,2.9212,2.9203,2.9197,2.9205,2.9206,2.9207,2.92,2.9184,2.9183,2.9183,2.9182,0,2.9268,2.9246,2.9281,2.9266,2.9264,2.9292,2.9279,2.9299,2.9284,2.9309,2.9313,2.9289,2.9306,2.9282,2.9295,2.9282,2.9329,2.9316,2.933,2.9325,2.9366,2.9362,2.9503,2.952,2.9387,2.9388,2.9389,0,2.933,2.9356,2.9345,2.9355,2.9352,2.9369,2.9376,2.9347,2.9356,2.9355,2.9375,2.9388,2.9397,2.9426,2.941,2.9421,2.9406,2.9455,2.9407,2.9415,2.9405,2.9403,2.9405,2.9464,2.9465,2.9467,2.9468,0,2.9443,2.9432,2.9443,2.9452,2.9462,2.9467,2.947,2.9481,2.945,2.9462,2.9479,2.9486,2.9501,2.9515,2.9522,2.9517,2.9488,2.9484,2.9493,2.95,2.9507,2.9503,2.9355,2.948,2.9479,2.9478,2.9477,2.9477,2.9528,2.9549,2.9544,2.9559,2.9558,2.9562,2.958,2.9568,2.9581,2.9591,2.9574,2.9595,2.9592,2.9598,2.9597,2.9613,2.9592,2.9606,2.9609,2.9612,2.9618,2.9507,2.9615,2.9614,2.9614,2.9614,2.9614,0,2.9637,2.9633,2.9647,2.9652,2.9664,2.9637,2.9639,2.9651,2.967,2.967,2.968,2.97,2.9713,2.97,2.9711,2.9727,2.9714,2.9731,2.9728,2.9727,2.9637,2.9627,2.9741,2.9741,2.9741,2.9741,2.9741,2.9741,2.9695,2.9729,2.9717,2.9751,2.9746,2.9766,2.977,2.9774,2.9773,2.9797,2.9809,2.98,2.9795,2.9806,2.9818,2.9813,2.9818,2.984,2.9831,2.9746,2.9734,2.9722,2.9712,2.9842,2.9842,2.9919,2.992,2.9921]}]]